Location: St. Louis
(38.6270°N, 90.1994°W)
Time: 22:10:24
(UTC-05:00)

ISS - Pass Details

Date: 09 April 2014
Orbit: 402 x 406 km, 51.6° (Epoch: 29 August)

Event Time Altitude Azimuth Distance (km) Brightness Sun altitude
Rises 21:17:01 0° 291° (WNW) 2,399 2.2 -20.1°
Reaches altitude 10° 21:20:22 10° 326° (NW) 1,537 0.5 -20.7°
Maximum altitude 21:21:39 12° 348° (NNW) 1,443 0.0 -20.9°
Drops below altitude 10° 21:22:56 10° 10° (N) 1,540 -0.2 -21.1°
Enters shadow 21:24:27 - 29° (NNE) 1,854 0.0 -21.4°
